#timestamp,LO_Frequency,Hit,StdDev 
1624863615.6,286046998.3,N
1624863635.5,286046999.5,N
1624863655.3,286046996.5,N
1624863675.1,286046996.5,N
1624863695.9,286046997.3,N
1624863715.7,286046997.7,N
1624863735.6,286046995.3,Y
1624863755.4,286046997.8,P
1624863775.2,286046997.0,P
1624863795.1,286046997.5,P
1624863796.0,286046997.5,Y
1624863815.8,286046998.2,P
1624863835.7,286046998.9,P
1624863855.5,286046998.5,N
1624863875.3,286046999.0,N
1624863895.2,286046998.6,N
1624863915.0,286046999.2,N
1624863915.9,286046999.2,N
1624863935.7,286046997.7,Y
1624863955.6,286046996.9,P
1624863975.4,286046997.9,N
1624863995.3,286046995.2,P
1624864015.1,286046996.1,Y
1624864016.0,286046996.1,P
1624864035.8,286046996.9,P
1624864055.7,286046999.6,N
1624864075.5,286046999.5,N
1624864095.3,286046999.0,N
1624864115.2,286046999.5,N
1624864135.0,286046997.2,N
1624864135.9,286046997.2,N
1624864155.8,286046997.4,N
1624864175.6,286046995.0,Y
1624864195.4,286046999.3,P
1624864215.3,286046999.2,N
1624864235.1,286046999.5,N
1624864255.9,286046996.7,Y
1624864275.7,286046999.0,P
1624864295.5,286046999.0,P
1624864315.4,286047001.0,P
1624864335.2,286046998.6,N
1624864355.1,286046999.0,N
1624864356.0,286046999.0,N
1624864375.8,286046999.6,N
1624864395.6,286046999.1,N
1624864415.5,286046998.9,N
1624864435.3,286046998.2,N
1624864455.1,286046998.5,N
1624864475.9,286046998.8,N
1624864495.7,286046998.7,N
1624864515.6,286046996.5,Y
1624864535.4,286046998.4,P
1624864555.2,286047000.5,N
1624864575.1,286046999.8,N
1624864576.0,286046999.8,N
1624864595.8,286047000.4,N
1624864615.7,286047000.0,N
1624864635.5,286047000.1,N
1624864655.3,286046999.7,N
1624864675.2,286047002.5,Y
1624864695.0,286047001.6,P
1624864695.9,286047001.6,N
1624864715.7,286047002.5,N
1624864735.6,286047000.2,N
1624864755.4,286046999.8,N
1624864775.3,286047002.3,N
1624864795.1,286047004.2,Y
1624864796.0,286047004.2,P
1624864815.8,286047000.3,N
1624864835.7,286047002.3,N
1624864855.5,286047003.9,N
1624864875.3,286047001.8,N
1624864895.2,286047002.6,N
1624864915.0,286047002.3,N
1624864915.9,286047002.3,N
1624864935.8,286047000.8,N
1624864955.6,286047000.7,N
1624864975.4,286047000.9,N
1624864995.3,286047000.0,N
1624865015.1,286046999.9,N
1624865035.9,286047000.1,N
1624865055.7,286047002.7,N
1624865075.5,286047002.5,N
1624865095.4,286047001.4,N
1624865115.2,286047001.4,N
1624865135.0,286047001.5,N
1624865136.0,286047001.5,N
1624865155.8,286047003.7,Y
1624865175.6,286047000.9,P
1624865195.5,286047000.6,N
1624865215.3,286047000.9,N
1624865235.1,286047002.6,Y
1624865255.9,286046999.7,P
1624865275.7,286046999.9,N
1624865295.6,286046999.9,N
1624865315.4,286047002.4,Y
1624865335.2,286047002.1,P
1624865355.1,286046999.8,N
1624865356.0,286046999.8,N
1624865375.8,286046999.8,N
1624865395.7,286047002.6,N
1624865415.5,286047001.5,N
1624865435.3,286047001.9,N
1624865455.2,286047002.0,N
1624865475.0,286047001.4,N
1624865475.9,286047001.4,N
1624865495.8,286047004.4,Y
1624865515.6,286046999.9,P
1624865535.4,286047000.6,N
1624865555.3,286046998.7,N
1624865575.1,286046998.6,N
1624865595.8,286046999.4,N
1624865615.7,286046998.8,N
1624865635.5,286047001.1,N
1624865655.4,286046999.3,N
1624865675.2,286047001.2,N
1624865695.0,286047001.0,N
1624865695.9,286047001.0,N
1624865715.8,286047000.4,N
1624865735.6,286046998.5,N
1624865755.5,286047000.8,N
1624865775.3,286046998.6,N
1624865795.1,286046998.8,N
1624865815.9,286047000.7,N
1624865835.7,286046998.7,N
1624865855.5,286047000.7,N
1624865875.4,286047000.4,N
1624865895.2,286046999.9,N
1624865915.1,286047000.5,N
1624865916.0,286047000.5,N
1624865935.8,286047000.5,N
1624865955.6,286046998.2,N
1624865975.5,286047001.1,N
1624865995.3,286046999.8,N
1624866015.2,286047001.1,N
1624866035.1,286046999.4,N
1624866036.0,286046999.4,N
1624866055.8,286046999.6,N
1624866075.7,286046998.2,N
1624866095.5,286046998.4,N
1624866115.3,286046996.5,Y
1624866135.2,286046998.6,P
1624866155.0,286047001.2,N
1624866155.9,286047001.2,N
1624866175.8,286046998.9,N
1624866195.6,286047001.1,N
1624866215.4,286046999.4,N
1624866235.3,286046996.9,N
1624866255.1,286046998.7,N
1624866275.9,286047001.1,N
1624866295.7,286046998.5,N
1624866315.5,286047000.6,N
1624866335.4,286047000.6,N
1624866355.2,286047000.9,N
1624866375.0,286047000.9,N
1624866375.9,286047000.9,N
1624866395.8,286046998.5,N
1624866415.6,286046998.9,N
1624866435.5,286046997.5,N
1624866455.3,286046995.2,Y
1624866475.1,286046997.1,P
1624866495.9,286046997.7,N
1624866515.7,286046998.7,N
1624866535.5,286047000.0,N
1624866555.4,286047001.4,N
1624866575.2,286047001.7,N
1624866595.1,286047003.2,N
1624866596.0,286047003.2,N
1624866615.8,286047003.8,N
1624866635.6,286047005.9,N
1624866655.5,286047006.0,N
1624866675.3,286047005.4,N
1624866695.2,286047005.7,N
1624866715.9,286047005.5,N
1624866735.7,286047005.7,N
1624866755.6,286047002.9,N
1624866775.4,286047002.9,N
1624866795.2,286047002.9,N
1624866815.1,286047005.9,N
1624866816.0,286047005.9,N
1624866835.8,286047005.4,N
1624866855.7,286047007.3,N
1624866875.5,286047007.2,N
1624866895.3,286047004.6,N
1624866915.2,286047007.5,N
1624866935.0,286047005.2,N
1624866935.9,286047005.2,N
1624866955.7,286047005.2,N
1624866975.6,286047005.7,N
1624866995.4,286047005.9,N
1624867015.3,286047005.9,N
1624867035.1,286047005.5,N
1624867036.0,286047005.5,N
1624867055.8,286047003.1,N
1624867075.7,286047003.6,N
1624867095.5,286047003.3,N
1624867115.3,286047003.7,N
1624867135.2,286047003.4,N
1624867155.0,286047003.5,N
1624867155.9,286047003.5,N
1624867175.8,286047003.9,N
1624867195.6,286047003.9,N
